Change the Weather History Date:

Sunday, June 30, 2013

  Actual Average Record
Temperature  
Mean Temperature 27 °F -  
Max Temperature 31 °F - - ()
Min Temperature 23 °F - - ()
Degree Days  
Heating Degree Days 38    
Moisture  
Dew Point -    
Average Humidity    
Maximum Humidity    
Minimum Humidity    
Precipitation  
Precipitation 0.00 in - - ()
Sea Level Pressure  
Sea Level Pressure 29.80 in    
Wind  
Wind Speed 11 mph ()    
Max Wind Speed 18 mph    
Max Gust Speed -    
Visibility 2.5 miles    
Events Rain , Snow    
T = Trace of Precipitation, MM = Missing Value Source: Averaged Metar Reports

Daily Weather History Graph

Daily Weather History Graph

Search for Another Location

Airport or City:

Trip Planner

Search our weather history database for the weather conditions in past years. The results will help you decide how hot, cold, wet, or windy it might be!

Date:

Astronomy

Jun. 30, 2013 Rise Set
Actual Time 1:41 AM ADT 12:36 AM ADT
Civil Twilight Sun does not rise Sun does not rise
Nautical Twilight Sun does not rise Sun does not rise
Astronomical Twilight Sun does not rise Sun does not rise
Moon 12:00 AM ADT (6/30) 2:42 PM ADT (6/30)
Length of Visible Light 24h 00m
Length of Day
22h 55m
Last Quarter, 46% of the Moon is Illuminated
Jun 30
Last Quarter
Jul 8
New
Jul 16
First Quarter
Jul 22
Full
Jul 29
Last Quarter

Hourly Weather History & Observations

Time (ADT) Temp. Windchill Dew Point Humidity Pressure Visibility Wind Dir Wind Speed Gust Speed Precip Events Conditions
12:00 AM 24 °F - - % 29.85 in 0 mi NNE 9.2 mph - -   Heavy Freezing Rain
12:00 AM 24.8 °F 15.3 °F - N/A% 29.85 in 0.1 mi NNE 9.2 mph - N/A Rain Light Freezing Rain
12:38 AM 24.8 °F 14.0 °F - N/A% 29.68 in 0.5 mi NNE 11.5 mph - N/A Rain Light Freezing Rain
1:00 AM 24.8 °F 13.4 °F - N/A% 29.86 in 0.5 mi NE 12.7 mph - N/A Rain Light Freezing Rain
1:01 AM 24.8 °F 14.0 °F - N/A% 29.69 in 0.4 mi NNE 11.5 mph - N/A Rain Light Freezing Rain
1:33 AM 24.8 °F 14.0 °F - N/A% 29.68 in 0.1 mi NNE 11.5 mph - N/A Rain Light Freezing Rain
2:00 AM 23.0 °F 11.1 °F - N/A% 29.86 in 0.1 mi North 12.7 mph - N/A Rain Light Freezing Rain
3:00 AM 24 °F - - % 29.87 in 0 mi North 12.7 mph - -  
3:00 AM 23.0 °F 11.1 °F - N/A% 29.87 in 0.1 mi North 12.7 mph - N/A Rain Light Freezing Rain
3:06 AM 23.0 °F 10.1 °F - N/A% 29.69 in 0.1 mi North 15.0 mph - N/A   Light Freezing Drizzle
3:40 AM 23.0 °F 8.7 °F - N/A% 29.69 in 0.2 mi North 18.4 mph - N/A   Light Freezing Drizzle
4:00 AM 23.0 °F 8.7 °F - N/A% 29.87 in 0.2 mi North 18.4 mph - N/A   Light Freezing Drizzle
5:00 AM 23.0 °F 9.6 °F - N/A% 29.88 in 0.2 mi North 16.1 mph - N/A   Light Freezing Drizzle
5:16 AM 23.0 °F 9.2 °F - N/A% 29.70 in 0.1 mi North 17.3 mph - N/A   Light Freezing Drizzle
6:00 AM 23 °F - - % 29.89 in 0 mi North 17.3 mph - - Rain Light Freezing Rain
6:00 AM 23.0 °F 9.2 °F - N/A% 29.89 in 0.1 mi North 17.3 mph - N/A   Light Freezing Drizzle
7:00 AM 23.0 °F 9.2 °F - N/A% 29.90 in 0.2 mi North 17.3 mph - N/A   Heavy Freezing Drizzle
8:00 AM 23.0 °F 8.7 °F - N/A% 29.89 in 0.4 mi NNE 18.4 mph - N/A   Heavy Freezing Drizzle
8:18 AM 23.0 °F 8.7 °F - N/A% 29.72 in 0.4 mi NNE 18.4 mph - N/A Rain Light Freezing Rain
8:29 AM 23.0 °F 9.2 °F - N/A% 29.72 in 0.6 mi NNE 17.3 mph - N/A Rain Light Freezing Rain
9:00 AM 24 °F - - % 29.90 in 1 mi North 18.4 mph - -  
9:00 AM 23.0 °F 9.2 °F - N/A% 29.90 in 0.8 mi NNE 17.3 mph - N/A Rain Light Freezing Rain
9:01 AM 23.0 °F 8.7 °F - N/A% 29.72 in 0.8 mi North 18.4 mph - N/A Rain Light Freezing Rain
9:26 AM 24.8 °F 12.4 °F - N/A% 29.72 in 0.6 mi North 15.0 mph - N/A Rain Light Freezing Rain
9:48 AM 24.8 °F 12.4 °F - N/A% 29.73 in 0.4 mi North 15.0 mph - N/A Rain Light Freezing Rain
9:56 AM 24.8 °F 11.9 °F - N/A% 29.73 in 0.1 mi North 16.1 mph - N/A Rain Light Freezing Rain
10:00 AM 24.8 °F 11.9 °F - N/A% 29.91 in 0.1 mi North 16.1 mph - N/A Rain Light Freezing Rain
11:00 AM 24.8 °F 12.9 °F - N/A% 29.91 in 0.0 mi North 13.8 mph - N/A Rain Light Freezing Rain
11:24 AM 26.6 °F 15.7 °F - N/A% 29.73 in 0.0 mi North 12.7 mph - N/A   Light Freezing Drizzle
11:39 AM 26.6 °F 15.2 °F - N/A% 29.73 in 0.1 mi North 13.8 mph - N/A Snow Light Snow
11:48 AM 26.6 °F 15.2 °F - N/A% 29.73 in 0.1 mi North 13.8 mph - N/A Rain Light Freezing Rain
12:00 PM 26 °F - - % 29.91 in 0 mi North 13.8 mph - -   Heavy Freezing Rain
12:00 PM 26.6 °F 15.2 °F - N/A% 29.91 in 0.1 mi North 13.8 mph - N/A Rain Light Freezing Rain
12:27 PM 26.6 °F 15.7 °F - N/A% 29.73 in 0.1 mi North 12.7 mph - N/A Rain Light Freezing Rain
12:29 PM 26.6 °F 15.2 °F - N/A% 29.73 in 0.1 mi North 13.8 mph - N/A Snow Light Snow
12:48 PM 26.6 °F 15.2 °F - N/A% 29.72 in 0.1 mi North 13.8 mph - N/A Snow Light Snow
1:00 PM 26.6 °F 15.7 °F - N/A% 29.90 in 0.1 mi North 12.7 mph - N/A Snow Light Snow
1:35 PM 26.6 °F 16.2 °F - N/A% 29.72 in 0.1 mi North 11.5 mph - N/A Rain Light Freezing Rain
2:00 PM 26.6 °F 16.2 °F - N/A% 29.90 in 0.1 mi North 11.5 mph - N/A Rain Light Freezing Rain
2:18 PM 26.6 °F 16.8 °F - N/A% 29.72 in 0.2 mi North 10.4 mph - N/A Rain Light Freezing Rain
2:27 PM 26.6 °F 16.2 °F - N/A% 29.72 in 0.1 mi North 11.5 mph - N/A Rain Light Freezing Rain
2:38 PM 26.6 °F 16.8 °F - N/A% 29.72 in 0.5 mi North 10.4 mph - N/A Rain Light Freezing Rain
2:45 PM 26.6 °F 18.2 °F - N/A% 29.72 in 0.4 mi North 8.1 mph - N/A Rain Light Freezing Rain
2:52 PM 26.6 °F 16.8 °F - N/A% 29.72 in 0.1 mi North 10.4 mph - N/A Rain Light Freezing Rain
2:59 PM 26.6 °F 16.8 °F - N/A% 29.72 in 0.2 mi North 10.4 mph - N/A Rain Light Freezing Rain
3:00 PM 27 °F - - % 29.90 in 0 mi North 10.4 mph - -  
3:00 PM 26.6 °F 16.8 °F - N/A% 29.90 in 0.4 mi North 10.4 mph - N/A Rain Light Freezing Rain
3:07 PM 26.6 °F 16.8 °F - N/A% 29.72 in 3.5 mi North 10.4 mph - N/A Rain Light Freezing Rain
4:00 PM 28.4 °F 20.4 °F - N/A% 29.89 in 9.0 mi North 8.1 mph - N/A Rain Light Freezing Rain
5:00 PM 26.6 °F 17.5 °F - N/A% 29.89 in 9.0 mi North 9.2 mph - N/A Rain Light Freezing Rain
5:29 PM 28.4 °F 20.4 °F - N/A% 29.71 in 9.0 mi North 8.1 mph - N/A Snow Light Snow
6:00 PM 28 °F - - % 29.89 in 9 mi North 8.1 mph - - Snow Light Snow
6:00 PM 28.4 °F 20.4 °F - N/A% 29.89 in 9.0 mi North 8.1 mph - N/A Snow Light Snow
6:56 PM 28.4 °F 21.2 °F - N/A% 29.71 in 9.0 mi North 6.9 mph - N/A Rain Light Freezing Rain
7:00 PM 28.4 °F 21.2 °F - N/A% 29.88 in 9.0 mi North 6.9 mph - N/A Rain Light Freezing Rain
8:00 PM 30.2 °F 24.3 °F - N/A% 29.88 in 9.0 mi North 5.8 mph - N/A Rain Light Freezing Rain
9:00 PM 31 °F - - % 29.88 in 9 mi North 2.3 mph - -  
9:00 PM 30.2 °F - - N/A% 29.88 in 9.0 mi Calm Calm - N/A Rain Light Freezing Rain
9:16 PM 30.2 °F 26.7 °F - N/A% 29.70 in 9.0 mi WSW 3.5 mph - N/A   Unknown
9:18 PM 30.2 °F 26.7 °F - N/A% 29.70 in 9.0 mi WSW 3.5 mph - N/A Rain Light Freezing Rain
9:33 PM 30.2 °F 26.7 °F - N/A% 29.70 in 9.0 mi SW 3.5 mph - N/A   Unknown
9:57 PM 28.4 °F 22.2 °F - N/A% 29.69 in 9.0 mi SW 5.8 mph - N/A Rain Light Freezing Rain
10:00 PM 28.4 °F 22.2 °F - N/A% 29.87 in 9.0 mi SW 5.8 mph - N/A Rain Light Freezing Rain
11:00 PM 28.4 °F 24.6 °F - N/A% 29.85 in 9.0 mi SW 3.5 mph - N/A Rain Light Freezing Rain